Location: Unspecified
(0.0000°N, 0.0000°E)
Time: 22:26:04
(UTC+00:00)

Vanguard 2 - Pass Details

Date: 15 December 2017
Orbit: 553 x 2939 km, 32.9° (Epoch: 17 June)

Event Time Altitude Azimuth Distance (km) Brightness Sun altitude
Rises 10:58:11 0° 236° (WSW) 6,783 12.4 62.9°
Reaches altitude 10° 11:02:53 10° 237° (WSW) 5,684 12.1 63.5°
Maximum altitude 11:19:51 81° 323° (NW) 2,282 11.1 65.2°
Drops below altitude 10° 11:30:45 10° 50° (NE) 3,843 11.1 66.0°
Sets 11:33:19 0° 52° (NE) 4,560 11.4 66.1°
